Time,TemperatureF,DewpointF,PressureIn,WindDirection,WindDirectionDegrees,WindSpeedMPH,WindSpeedGustMPH,Humidity,HourlyPrecipIn,Conditions,Clouds,dailyrainin,SolarRadiationWatts/m^2,SoftwareType,DateUTC
2013-01-14 00:04:00,59.0,50.0,-100.00,West,270,9.0,17.0,73,0.00,,,0.00,0.000000,,2013-01-14 05:04:00,
2013-01-14 00:12:00,59.0,50.0,-100.00,West,270,9.0,17.0,73,0.00,,,0.00,0.000000,,2013-01-14 05:12:00,
2013-01-14 00:33:00,57.0,55.0,-100.00,SW,230,8.0,15.0,94,0.16,,,0.16,0.000000,,2013-01-14 05:33:00,
2013-01-14 00:43:00,57.0,55.0,-100.00,SW,230,8.0,15.0,94,0.16,,,0.16,0.000000,,2013-01-14 05:43:00,
2013-01-14 00:53:00,57.0,55.0,-100.00,SW,230,8.0,15.0,94,0.16,,,0.16,0.000000,,2013-01-14 05:53:00,
2013-01-14 01:03:00,57.0,55.0,-100.00,SW,230,8.0,15.0,94,0.16,,,0.16,0.000000,,2013-01-14 06:03:00,
2013-01-14 01:12:00,57.0,55.0,-100.00,SW,230,8.0,15.0,94,0.16,,,0.16,0.000000,,2013-01-14 06:12:00,
2013-01-14 01:33:00,57.0,55.0,-100.00,SW,214,6.0,12.0,93,0.03,,,0.19,0.000000,,2013-01-14 06:33:00,
2013-01-14 01:43:00,57.0,55.0,-100.00,SW,214,6.0,12.0,93,0.03,,,0.19,0.000000,,2013-01-14 06:43:00,
2013-01-14 01:53:00,57.0,55.0,-100.00,SW,214,6.0,12.0,93,0.03,,,0.19,0.000000,,2013-01-14 06:53:00,
2013-01-14 02:02:00,57.0,55.0,-100.00,SW,214,6.0,12.0,93,0.03,,,0.19,0.000000,,2013-01-14 07:02:00,
2013-01-14 02:12:00,57.0,55.0,-100.00,SW,214,6.0,12.0,93,0.03,,,0.19,0.000000,,2013-01-14 07:12:00,
2013-01-14 02:33:00,56.0,54.0,-100.00,SW,219,7.0,12.0,93,0.01,,,0.20,0.000000,,2013-01-14 07:33:00,
2013-01-14 02:43:00,56.0,54.0,-100.00,SW,219,7.0,12.0,93,0.01,,,0.20,0.000000,,2013-01-14 07:43:00,
2013-01-14 02:53:00,56.0,54.0,-100.00,SW,219,7.0,12.0,93,0.01,,,0.20,0.000000,,2013-01-14 07:53:00,
2013-01-14 03:02:00,56.0,54.0,-100.00,SW,219,7.0,12.0,93,0.01,,,0.20,0.000000,,2013-01-14 08:02:00,
2013-01-14 03:12:00,56.0,54.0,-100.00,SW,219,7.0,12.0,93,0.01,,,0.20,0.000000,,2013-01-14 08:12:00,
2013-01-14 03:43:00,57.0,55.0,-100.00,SW,232,9.0,15.0,94,0.00,,,0.20,0.000000,,2013-01-14 08:43:00,
2013-01-14 03:53:00,57.0,55.0,-100.00,SW,232,9.0,15.0,94,0.00,,,0.20,0.000000,,2013-01-14 08:53:00,
2013-01-14 04:03:00,57.0,55.0,-100.00,SW,232,9.0,15.0,94,0.00,,,0.20,0.000000,,2013-01-14 09:03:00,
2013-01-14 04:12:00,57.0,55.0,-100.00,SW,232,9.0,15.0,94,0.00,,,0.20,0.000000,,2013-01-14 09:12:00,
2013-01-14 04:34:00,46.0,44.0,-100.00,West,262,7.0,23.0,93,0.04,,,0.24,0.000000,,2013-01-14 09:34:00,
2013-01-14 04:43:00,46.0,44.0,-100.00,West,262,7.0,23.0,93,0.04,,,0.24,0.000000,,2013-01-14 09:43:00,
2013-01-14 04:53:00,46.0,44.0,-100.00,West,262,7.0,23.0,93,0.04,,,0.24,0.000000,,2013-01-14 09:53:00,
2013-01-14 05:03:00,46.0,44.0,-100.00,West,262,7.0,23.0,93,0.04,,,0.24,0.000000,,2013-01-14 10:03:00,
2013-01-14 05:12:00,46.0,44.0,-100.00,West,262,7.0,23.0,93,0.04,,,0.24,0.000000,,2013-01-14 10:12:00,
2013-01-14 05:43:00,43.0,41.0,-100.00,WNW,289,5.0,13.0,93,0.02,,,0.26,0.000000,,2013-01-14 10:43:00,
2013-01-14 05:53:00,43.0,41.0,-100.00,WNW,289,5.0,13.0,93,0.02,,,0.26,0.000000,,2013-01-14 10:53:00,
2013-01-14 06:02:00,43.0,41.0,-100.00,WNW,289,5.0,13.0,93,0.02,,,0.26,0.000000,,2013-01-14 11:02:00,
2013-01-14 06:12:00,43.0,41.0,-100.00,WNW,289,5.0,13.0,93,0.02,,,0.26,0.000000,,2013-01-14 11:12:00,
2013-01-14 06:43:00,43.0,42.0,-100.00,WSW,246,5.0,10.0,95,0.01,,,0.27,0.000000,,2013-01-14 11:43:00,
2013-01-14 06:53:00,43.0,42.0,-100.00,WSW,246,5.0,10.0,95,0.01,,,0.27,0.000000,,2013-01-14 11:53:00,
2013-01-14 07:03:00,43.0,42.0,-100.00,WSW,246,5.0,10.0,95,0.01,,,0.27,0.000000,,2013-01-14 12:03:00,
2013-01-14 07:12:00,43.0,42.0,-100.00,WSW,246,5.0,10.0,95,0.01,,,0.27,0.000000,,2013-01-14 12:12:00,
2013-01-14 07:33:00,41.0,40.0,-100.00,NW,322,4.0,9.0,96,0.01,,,0.28,0.000000,,2013-01-14 12:33:00,
2013-01-14 07:43:00,41.0,40.0,-100.00,NW,322,4.0,9.0,96,0.01,,,0.28,0.000000,,2013-01-14 12:43:00,
2013-01-14 07:53:00,41.0,40.0,-100.00,NW,322,4.0,9.0,96,0.01,,,0.28,0.000000,,2013-01-14 12:53:00,
2013-01-14 08:03:00,41.0,40.0,-100.00,NW,322,4.0,9.0,96,0.01,,,0.28,0.000000,,2013-01-14 13:03:00,
2013-01-14 08:13:00,41.0,40.0,-100.00,NW,322,4.0,9.0,96,0.01,,,0.28,0.000000,,2013-01-14 13:13:00,
2013-01-14 08:43:00,40.0,38.0,-100.00,NW,309,5.0,9.0,94,0.00,,,0.28,1.000000,,2013-01-14 13:43:00,
2013-01-14 08:53:00,40.0,38.0,-100.00,NW,309,5.0,9.0,94,0.00,,,0.28,1.000000,,2013-01-14 13:53:00,
2013-01-14 09:03:00,40.0,38.0,-100.00,NW,309,5.0,9.0,94,0.00,,,0.28,1.000000,,2013-01-14 14:03:00,
2013-01-14 09:13:00,40.0,38.0,-100.00,NW,309,5.0,9.0,94,0.00,,,0.28,1.000000,,2013-01-14 14:13:00,
2013-01-14 09:33:00,40.0,38.0,-100.00,NW,307,5.0,11.0,93,0.00,,,0.28,13.000000,,2013-01-14 14:33:00,
2013-01-14 09:43:00,40.0,38.0,-100.00,NW,307,5.0,11.0,93,0.00,,,0.28,13.000000,,2013-01-14 14:43:00,
2013-01-14 09:53:00,40.0,38.0,-100.00,NW,307,5.0,11.0,93,0.00,,,0.28,13.000000,,2013-01-14 14:53:00,
2013-01-14 10:03:00,40.0,38.0,-100.00,NW,307,5.0,11.0,93,0.00,,,0.28,13.000000,,2013-01-14 15:03:00,
2013-01-14 10:12:00,40.0,38.0,-100.00,NW,307,5.0,11.0,93,0.00,,,0.28,13.000000,,2013-01-14 15:12:00,
2013-01-14 10:34:00,40.0,39.0,-100.00,NW,309,4.0,12.0,95,0.00,,,0.28,34.000000,,2013-01-14 15:34:00,
2013-01-14 10:43:00,40.0,39.0,-100.00,NW,309,4.0,12.0,95,0.00,,,0.28,34.000000,,2013-01-14 15:43:00,
2013-01-14 10:53:00,40.0,39.0,-100.00,NW,309,4.0,12.0,95,0.00,,,0.28,34.000000,,2013-01-14 15:53:00,
2013-01-14 11:03:00,40.0,39.0,-100.00,NW,309,4.0,12.0,95,0.00,,,0.28,34.000000,,2013-01-14 16:03:00,
2013-01-14 11:13:00,40.0,39.0,-100.00,NW,309,4.0,12.0,95,0.00,,,0.28,34.000000,,2013-01-14 16:13:00,
2013-01-14 11:33:00,40.0,37.0,-100.00,NNW,327,3.0,11.0,89,0.00,,,0.28,50.000000,,2013-01-14 16:33:00,
2013-01-14 11:43:00,40.0,37.0,-100.00,NNW,327,3.0,11.0,89,0.00,,,0.28,50.000000,,2013-01-14 16:43:00,
2013-01-14 11:53:00,40.0,37.0,-100.00,NNW,327,3.0,11.0,89,0.00,,,0.28,50.000000,,2013-01-14 16:53:00,
2013-01-14 12:03:00,40.0,37.0,-100.00,NNW,327,3.0,11.0,89,0.00,,,0.28,50.000000,,2013-01-14 17:03:00,
2013-01-14 12:12:00,40.0,37.0,-100.00,NNW,327,3.0,11.0,89,0.00,,,0.28,50.000000,,2013-01-14 17:12:00,
2013-01-14 12:43:00,40.0,36.0,-100.00,WNW,294,4.0,10.0,87,0.00,,,0.28,60.000000,,2013-01-14 17:43:00,
2013-01-14 12:54:00,40.0,36.0,-100.00,WNW,294,4.0,10.0,87,0.00,,,0.28,60.000000,,2013-01-14 17:54:00,
2013-01-14 13:03:00,40.0,36.0,-100.00,WNW,294,4.0,10.0,87,0.00,,,0.28,60.000000,,2013-01-14 18:03:00,
2013-01-14 13:13:00,40.0,36.0,-100.00,WNW,294,4.0,10.0,87,0.00,,,0.28,60.000000,,2013-01-14 18:13:00,
2013-01-14 13:33:00,39.0,35.0,-100.00,NNW,327,4.0,9.0,85,0.00,,,0.28,50.000000,,2013-01-14 18:33:00,
2013-01-14 13:43:00,39.0,35.0,-100.00,NNW,327,4.0,9.0,85,0.00,,,0.28,50.000000,,2013-01-14 18:43:00,
2013-01-14 13:53:00,39.0,35.0,-100.00,NNW,327,4.0,9.0,85,0.00,,,0.28,50.000000,,2013-01-14 18:53:00,
2013-01-14 14:03:00,39.0,35.0,-100.00,NNW,327,4.0,9.0,85,0.00,,,0.28,50.000000,,2013-01-14 19:03:00,
2013-01-14 14:13:00,39.0,35.0,-100.00,NNW,327,4.0,9.0,85,0.00,,,0.28,50.000000,,2013-01-14 19:13:00,
2013-01-14 14:43:00,40.0,35.0,-100.00,NW,315,3.0,9.0,81,0.00,,,0.28,57.000000,,2013-01-14 19:43:00,
2013-01-14 14:53:00,40.0,35.0,-100.00,NW,315,3.0,9.0,81,0.00,,,0.28,57.000000,,2013-01-14 19:53:00,
2013-01-14 15:04:00,40.0,35.0,-100.00,NW,315,3.0,9.0,81,0.00,,,0.28,57.000000,,2013-01-14 20:04:00,
2013-01-14 15:13:00,40.0,35.0,-100.00,NW,315,3.0,9.0,81,0.00,,,0.28,57.000000,,2013-01-14 20:13:00,
2013-01-14 15:33:00,39.0,33.0,-100.00,ENE,60,4.0,7.0,79,0.00,,,0.28,66.000000,,2013-01-14 20:33:00,
2013-01-14 15:43:00,39.0,33.0,-100.00,ENE,60,4.0,7.0,79,0.00,,,0.28,66.000000,,2013-01-14 20:43:00,
2013-01-14 15:53:00,39.0,33.0,-100.00,ENE,60,4.0,7.0,79,0.00,,,0.28,66.000000,,2013-01-14 20:53:00,
2013-01-14 16:03:00,39.0,33.0,-100.00,ENE,60,4.0,7.0,79,0.00,,,0.28,66.000000,,2013-01-14 21:03:00,
2013-01-14 16:13:00,39.0,33.0,-100.00,ENE,60,4.0,7.0,79,0.00,,,0.28,66.000000,,2013-01-14 21:13:00,
2013-01-14 16:43:00,39.0,33.0,-100.00,NNW,344,3.0,5.0,79,0.00,,,0.28,26.000000,,2013-01-14 21:43:00,
2013-01-14 16:53:00,39.0,33.0,-100.00,NNW,344,3.0,5.0,79,0.00,,,0.28,26.000000,,2013-01-14 21:53:00,
2013-01-14 17:03:00,39.0,33.0,-100.00,NNW,344,3.0,5.0,79,0.00,,,0.28,26.000000,,2013-01-14 22:03:00,
2013-01-14 17:12:00,39.0,33.0,-100.00,NNW,344,3.0,5.0,79,0.00,,,0.28,26.000000,,2013-01-14 22:12:00,
2013-01-14 17:43:00,38.0,31.0,-100.00,NW,317,7.0,11.0,77,0.00,,,-99.99,3.000000,,2013-01-14 22:43:00,
2013-01-14 17:53:00,38.0,31.0,-100.00,NW,317,7.0,11.0,77,0.00,,,-99.99,3.000000,,2013-01-14 22:53:00,
2013-01-14 18:03:00,38.0,31.0,-100.00,NW,317,7.0,11.0,77,0.00,,,-99.99,3.000000,,2013-01-14 23:03:00,
2013-01-14 18:12:00,38.0,31.0,-100.00,NW,317,7.0,11.0,77,0.00,,,-99.99,3.000000,,2013-01-14 23:12:00,
2013-01-14 18:33:00,37.0,29.0,-100.00,North,352,5.0,11.0,74,0.00,,,0.28,0.000000,,2013-01-14 23:33:00,
2013-01-14 18:43:00,37.0,29.0,-100.00,North,352,5.0,11.0,74,0.00,,,0.28,0.000000,,2013-01-14 23:43:00,
2013-01-14 18:53:00,37.0,29.0,-100.00,North,352,5.0,11.0,74,0.00,,,0.28,0.000000,,2013-01-14 23:53:00,
2013-01-14 19:03:00,37.0,29.0,-100.00,North,352,5.0,11.0,74,0.00,,,0.28,0.000000,,2013-01-15 00:03:00,
2013-01-14 19:12:00,37.0,29.0,-100.00,North,352,5.0,11.0,74,0.00,,,0.28,0.000000,,2013-01-15 00:12:00,
2013-01-14 19:43:00,36.0,28.0,-100.00,NNE,15,5.0,10.0,73,0.00,,,0.28,0.000000,,2013-01-15 00:43:00,
2013-01-14 19:53:00,36.0,28.0,-100.00,NNE,15,5.0,10.0,73,0.00,,,0.28,0.000000,,2013-01-15 00:53:00,
2013-01-14 20:02:00,36.0,28.0,-100.00,NNE,15,5.0,10.0,73,0.00,,,0.28,0.000000,,2013-01-15 01:02:00,
2013-01-14 20:12:00,36.0,28.0,-100.00,NNE,15,5.0,10.0,73,0.00,,,0.28,0.000000,,2013-01-15 01:12:00,
2013-01-14 20:43:00,36.0,28.0,-100.00,North,359,4.0,7.0,73,0.00,,,0.28,0.000000,,2013-01-15 01:43:00,
2013-01-14 20:53:00,36.0,28.0,-100.00,North,359,4.0,7.0,73,0.00,,,0.28,0.000000,,2013-01-15 01:53:00,
2013-01-14 21:03:00,36.0,28.0,-100.00,North,359,4.0,7.0,73,0.00,,,0.28,0.000000,,2013-01-15 02:03:00,
2013-01-14 21:12:00,36.0,28.0,-100.00,North,359,4.0,7.0,73,0.00,,,0.28,0.000000,,2013-01-15 02:12:00,
2013-01-14 21:43:00,35.0,27.0,-100.00,NE,50,3.0,7.0,73,0.00,,,0.28,0.000000,,2013-01-15 02:43:00,
2013-01-14 21:53:00,35.0,27.0,-100.00,NE,50,3.0,7.0,73,0.00,,,0.28,0.000000,,2013-01-15 02:53:00,
2013-01-14 22:03:00,35.0,27.0,-100.00,NE,50,3.0,7.0,73,0.00,,,0.28,0.000000,,2013-01-15 03:03:00,
2013-01-14 22:12:00,35.0,27.0,-100.00,NE,50,3.0,7.0,73,0.00,,,0.28,0.000000,,2013-01-15 03:12:00,
2013-01-14 22:33:00,32.0,30.0,-100.00,SW,234,4.0,7.0,93,0.00,,,0.28,0.000000,,2013-01-15 03:33:00,
2013-01-14 22:43:00,32.0,30.0,-100.00,SW,234,4.0,7.0,93,0.00,,,0.28,0.000000,,2013-01-15 03:43:00,
2013-01-14 22:53:00,32.0,30.0,-100.00,SW,234,4.0,7.0,93,0.00,,,0.28,0.000000,,2013-01-15 03:53:00,
2013-01-14 23:03:00,32.0,30.0,-100.00,SW,234,4.0,7.0,93,0.00,,,0.28,0.000000,,2013-01-15 04:03:00,
2013-01-14 23:12:00,32.0,30.0,-100.00,SW,234,4.0,7.0,93,0.00,,,0.28,0.000000,,2013-01-15 04:12:00,
2013-01-14 23:43:00,33.0,30.0,-100.00,NNE,25,2.0,14.0,90,0.00,,,0.28,0.000000,,2013-01-15 04:43:00,
2013-01-14 23:52:00,33.0,30.0,-100.00,NNE,25,2.0,14.0,90,0.00,,,0.28,0.000000,,2013-01-15 04:52:00,